Regional Weather Roundup
Issued by NWS

Home | Current Version | Previous Version | Graphics & Text | Print | Product List | Glossary On
Versions: 1 2 3 4 5 6 7 8 9 10 11 12 13 14 15 16 17 18 19 20 21 22 23 24 25 26 27 28 29 30 31 32 33 34 35 36 37 38 39 40 41 42 43 44 45 46 47 48 49 50
000
ASUS45 KBOU 270507
RWRCO

WEATHER ROUNDUP FOR COLORADO
NATIONAL WEATHER SERVICE DENVER/BOULDER CO
1100 PM MDT TUE MAY 26 2015

NOTE: "FAIR" INDICATES FEW OR NO CLOUDS BELOW 12000 FEET WITH NO
SIGNIFICANT WEATHER AND/OR OBSTRUCTIONS TO VISIBILITY.

COZ001>005-013-030-031-270600-
...NORTHWEST COLORADO...

CITY           SKY/WX    TMP DP  RH WIND       PRES   REMARKS
CRAIG          CLOUDY    49  44  83 CALM      30.13R
HAYDEN         CLOUDY    46  43  87 E7        30.13F
MEEKER         CLOUDY    50  43  77 VRB6      30.16R
MOUNT WERNER   NOT AVBL
STEAMBOAT SPGS CLOUDY    46  43  91 E3        30.15F
WALDEN         CLOUDY    39  36  87 SE5       30.19F
$$

COZ006>008-011-270600-
...WEST CENTRAL VALLEYS...

CITY           SKY/WX    TMP DP  RH WIND       PRES   REMARKS
GRAND JUNCTION CLOUDY    54  49  83 E7        30.10S
MONTROSE       CLOUDY    51  47  86 SW6       30.16S
EAGLE          CLOUDY    50  45  81 E6        30.19S
RIFLE          CLOUDY    52  48  86 E6        30.15S
DELTA          CLOUDY    54  47  79 MISG      30.13S
NUCLA          CLOUDY    50  43  76 CALM      30.17F
$$

COZ017>023-064>068-270600-
...SOUTHWEST COLORADO...

CITY           SKY/WX    TMP DP  RH WIND       PRES   REMARKS
DURANGO        PTCLDY    50  43  77 NE9       30.18S
CORTEZ         PTCLDY    49  43  80 E5        30.14R
PAGOSA SPRINGS MOCLDY    49  42  76 SE5       30.26S
TELLURIDE      MOCLDY    43  35  73 SE8       30.31F
WOLF CREEK PAS NOT AVBL
$$

COZ009-010-012-014-032>034-037-058>063-270600-
...CENTRAL COLORADO...

CITY           SKY/WX    TMP DP  RH WIND       PRES   REMARKS
ASPEN          NOT AVBL
BUENA VISTA    MOCLDY    50  34  54 W8        30.22R
COPPER MTN     CLOUDY    37  30  75 SW8       30.38R
BERTHOUD PASS  CLOUDY    30  21  69 W20G26    30.39F WCI  18
COTTONWOOD PAS MOCLDY    46  32  57 W6        30.31R
GUNNISON       PTCLDY    45  37  76 CALM      30.27R
KREMMLING      CLOUDY    46  37  71 SW3       30.20S
LEADVILLE      PTCLDY    36  32  85 NE9       30.28R
SALIDA         PTCLDY    52  36  53 SW8       30.28R
SUNLIGHT       CLOUDY    36  36 100 CALM      30.35S FOG
WILKERSON PASS MOCLDY    34  32  93 SW8       30.37F WCI  27
$$

COZ069>075-270600-
...SAN LUIS VALLEY/SANGRE DE CRISTO MOUNTAINS...

CITY           SKY/WX    TMP DP  RH WIND       PRES   REMARKS
ALAMOSA        CLEAR     47  39  74 CALM      30.22R
LA VETA PASS   PTCLDY   N/A N/A N/A MISG      30.33S
SAGUACHE       CLEAR     43  41  93 NW6       30.25R
$$

COZ035-036-038>040-270600-
...NORTHERN COLORADO FRONT RANGE...

CITY           SKY/WX    TMP DP  RH WIND       PRES   REMARKS
DENVER INTL AP MOCLDY    54  46  74 S13       30.07S
DMNS CITY PARK   N/A     55  47  74 S5        30.07S
AURORA         MOCLDY    53  47  79 S8        30.09S
FRONT RANGE AP NOT AVBL
ERIE MUNI ARPT PTCLDY    54  46  74 SW7       30.07R
BOULDER MUN AP PTCLDY    55  41  58 W3        30.07R
CENTENNIAL     MOCLDY    52  47  83 S10       30.10S
BROOMFIELD     NOT AVBL
FORT COLLINS   PTCLDY    54  46  76 CALM      30.07S
LONGMONT       PTCLDY    51  47  85 W5        30.08R
$$

COZ041-046-047-076>085-087-088-270600-
...PIKES PEAK/PALMER DIVIDE AND SOUTHERN FOOTHILLS...

CITY           SKY/WX    TMP DP  RH WIND       PRES   REMARKS
COLO. SPRINGS  CLOUDY    51  47  86 CALM      30.15S
A. F. ACADEMY  CLOUDY    49  46  90 SE2       30.14F
ELLICOTT       CLOUDY   N/A N/A N/A E9        30.14F
FALCON         CLOUDY    48  46  90 S3        30.18S
FORT CARSON    PTCLDY    51  48  90 NE1       30.13S
LIMON          LGT RAIN  53  50  89 W14G22    30.14R
MONUMENT HILL    N/A     46  43  87 E7        30.16F
TRINIDAD       CLOUDY    53  46  77 S6        30.11S
$$

COZ042>045-048>051-090-091-270600-
...NORTHEAST COLORADO...

CITY           SKY/WX    TMP DP  RH WIND       PRES   REMARKS
GREELEY ARPT   PTCLDY    54  48  82 E6        30.05S
AKRON          PTCLDY    53  50  89 SE9       30.08R
BURLINGTON     CLEAR     54  50  86 S9        30.07S
WRAY           CLEAR     56  52  84 E7        30.05S
STERLING       CLEAR     57  50  77 CALM      30.04S
HOLYOKE        CLEAR     55  50  82 SE7       30.05S
FORT MORGAN    PTCLDY    55  49  82 E7        30.07R
$$

COZ086-089-092>099-270600-
...SOUTHEAST COLORADO...

CITY           SKY/WX    TMP DP  RH WIND       PRES   REMARKS
PUEBLO         CLOUDY    57  51  80 CALM      30.08R
LA JUNTA       CLOUDY    61  53  75 VRB3      30.05R
LAMAR          CLOUDY    61  55  81 E7        30.04R
SPRINGFIELD      N/A     62  53  72 W8G26     30.09R
$$


USA.gov is the U.S. government's official web portal to all federal, state and local government web resources and services.